Showing default

CYGFM02, 41886

Orbit data source: Space-Track

CYGFM02, 41886 is an American payload satellite in LEO that was launched on Thu, 15 Dec 2016 UTC via a PEGASUS XL launch vehicle from the Pegasus Launch, Eastern Range Air Space (ERAS). Payload-class satellites include a variety of spacecraft equipped with specific instruments for various scientific and technological missions. These include communications satellites like Starlink; space stations such as the ISS; scientific satellites like the Hubble; Earth observation satellites from companies like Planet Labs, Umbra, and HawkEye 360; GPS; miniature CubeSats for education and research; and military/defense satellites.

Loading next visibility...
Identifier
41886, 2016-078C
Orbit
LEO
Last TLE update
11 hours ago
Origin
Manufacturer
SST-US
Mission
Extended mission Civil Science
Bus & Motor
CYGNSS, Unknown motor
Mass
29 kg wet, 29 kg dry
Launch date (UTC)
2016-12-15 (8 years ago)
Launch vehicle
PEGASUS XL
Launch site
Pegasus Launch, Eastern Range Air Space (ERAS)
Object type
Payload
Rocket body
Debris
Shape & HBR
Half Hex Cyl + 2 Pan, 1.7 m
Radar Cross Section
0.450 m², Medium (>0.1 m² and < 1m²)

Expand to show TLE details & history

TLE from 11 hours ago
0 CYGFM02
1 41886U 16078C   25128.91503118  .00016696  00000-0  37382-3 0  9999
2 41886  34.9458   0.3519 0011987 324.8057  35.1870 15.42475822466331
Epoch: 2025-05-08T21:57Z
Definitive object data (Epoch: 2025-05-08T21:57:38.693Z)
Latitude
-0.00006°
Longitude
163.96191°
Altitude
431.024 km
Speed
7.659 km/s
True Right ascension
00h 01m 24s
True Declination
0° 00' 00"
Sunlit
Object was in daylight at TLE epoch
Visualization TLE readout
Latitude
31.68285°
Longitude
-137.61116°
Altitude
439.69 km
Speed
7.653 km/s
Apparent Right ascension
04h 32m 15s
Apparent Declination
-2° 46' 01"
Sunlit
Object is in daylight
Visualization observer readout
Local Sidereal Time
17:16:21
Azimuth
17.884° NNE
Elevation
-51.529°
Doppler factor
1
Orbital elements
Apogee altitude
450.267 km
Perigee altitude
433.916 km
Semi-major axis
6,820.228 km
Eccentricity
0.0011987
Inclination
34.9458°
RAAN
0.3519°
Arg. of periapsis
324.8057°
True anomaly
35.26625°
Mean anomaly
35.187°
Eccentric anomaly
35.22662°
Mean motion
3.85341 °/min
BSTAR
0.00037382
Orbital period
93.42 mins
Loading maneuver chart data...
Loading SW <> Apogee altitude chart data...
Loading historical data...
Loading historical data...
Loading historical data...
Loading historical data...
Loading historical data...
Loading historical data...
Loading historical data...

CYGFM02 Visibility forecast

Observer location: undefined°, undefined°

Span
Click to sort rows by Start time (UTC) header in descending order
Start Az.
Max El. time (UTC)
Max El. Az.
Max El.
End time (UTC)
End Az.
5 mins2025-05-09 19:59:05.302Z220.563° SW2025-05-09 20:01:05.302Z180.394° SSW23.486°2025-05-09 20:04:05.302Z112.32° ESE
4 mins2025-05-09 21:38:05.302Z231.372° WSW2025-05-09 21:40:05.302Z164.478° S28.998°2025-05-09 21:42:05.302Z121.464° SE
4 mins2025-05-09 23:16:05.302Z234.222° WSW2025-05-09 23:18:05.302Z188.338° SSW19.833°2025-05-09 23:20:05.302Z150.229° SSE
|